Location: Niles Junction
(37.5763°N, 121.9714°W)
Time: 04:21:25
(UTC+00:00)

Cosmos 614 Rocket - Pass Details

Date: 29 October 2020
Orbit: 734 x 763 km, 74.1° (Epoch: 23 November)

Event Time Altitude Azimuth Distance (km) Brightness Sun altitude
Rises 13:10:56 0° 204° (SSW) 3,189 7.0 -16.3°
Reaches altitude 10° 13:13:18 10° 207° (SSW) 2,264 6.2 -15.8°
Maximum altitude 13:18:24 67° 289° (WNW) 811 3.9 -14.8°
Drops below altitude 10° 13:23:30 10° 12° (NNE) 2,260 6.5 -13.8°
Sets 13:25:52 0° 16° (NNE) 3,183 7.3 -13.3°
